Weather History for San Angelo, TX

Change the Weather History Date:

Saturday, September 14, 2013

  Actual Average Record
Temperature  
Mean Temperature 79 °F 76 °F  
Max Temperature 94 °F 88 °F 102 °F (1960)
Min Temperature 63 °F 64 °F 49 °F (1945)
Degree Days  
Heating Degree Days 0 0  
Month to date heating degree days 0 0  
Since 1 July heating degree days 0 0  
Cooling Degree Days 14 11  
Month to date cooling degree days 230 186  
Year to date cooling degree days 2556 2222  
Growing Degree Days 28 (Base 50)    
Moisture  
Dew Point 56 °F    
Average Humidity 48    
Maximum Humidity 67    
Minimum Humidity 28    
Precipitation  
Precipitation 0.00 in 0.09 in 2.83 in (1967)
Month to date precipitation 0.26 1.26  
Year to date precipitation 12.02 15.33  
Sea Level Pressure  
Sea Level Pressure 29.88 in    
Wind  
Wind Speed 6 mph (SSE)    
Max Wind Speed 18 mph    
Max Gust Speed 24 mph    
Visibility 10 miles    
Events      
T = Trace of Precipitation, MM = Missing Value Source: NWS Daily Summary

Daily Weather History Graph

Daily Weather History Graph

Search for Another Location

Airport:

Trip Planner

Search our weather history database for the weather conditions in past years. The results will help you decide how hot, cold, wet, or windy it might be!

Date:

Astronomy

Sep. 14, 2013 Rise Set
Actual Time 7:25 AM CDT 7:48 PM CDT
Civil Twilight 7:01 AM CDT 8:12 PM CDT
Nautical Twilight 6:32 AM CDT 8:41 PM CDT
Astronomical Twilight 6:03 AM CDT 9:10 PM CDT
Moon 4:17 PM CDT (9/14) 2:14 AM CDT (9/14)
Length of Visible Light 13h 11m
Length of Day
12h 22m
Waxing Gibbous, 72% of the Moon is Illuminated
Sep 14
Waxing Gibbous
Sep 19
Full
Sep 26
Last Quarter
Oct 4
New
Oct 11
First Quarter

Hourly Weather History & Observations

Time (CDT) Temp. Heat Index Dew Point Humidity Pressure Visibility Wind Dir Wind Speed Gust Speed Precip Events Conditions
12:51 AM 73.0 °F - 54.0 °F 51% 29.87 in 10.0 mi South 5.8 mph - N/A   Clear
1:51 AM 71.1 °F - 54.0 °F 55% 29.87 in 10.0 mi South 4.6 mph - N/A   Clear
2:51 AM 70.0 °F - 54.0 °F 57% 29.87 in 10.0 mi SW 3.5 mph - N/A   Clear
3:51 AM 68.0 °F - 53.1 °F 59% 29.86 in 10.0 mi Calm Calm - N/A   Clear
4:51 AM 66.0 °F - 54.0 °F 65% 29.87 in 10.0 mi SSW 3.5 mph - N/A   Clear
5:51 AM 66.0 °F - 54.0 °F 65% 29.87 in 10.0 mi SW 3.5 mph - N/A   Clear
6:51 AM 64.9 °F - 54.0 °F 68% 29.89 in 10.0 mi SW 3.5 mph - N/A   Clear
7:51 AM 64.9 °F - 54.0 °F 68% 29.91 in 10.0 mi SW 3.5 mph - N/A   Clear
8:51 AM 71.1 °F - 55.9 °F 59% 29.92 in 10.0 mi Calm Calm - N/A   Clear
9:51 AM 75.9 °F - 59.0 °F 56% 29.94 in 10.0 mi NE 3.5 mph - N/A   Clear
10:51 AM 81.0 °F 81.7 °F 61.0 °F 50% 29.94 in 10.0 mi Calm Calm - N/A   Clear
11:51 AM 87.1 °F 87.0 °F 61.0 °F 41% 29.93 in 10.0 mi NE 8.1 mph - N/A   Clear
12:51 PM 88.0 °F 87.6 °F 60.1 °F 39% 29.91 in 10.0 mi East 9.2 mph - N/A   Partly Cloudy
1:51 PM 91.0 °F 89.7 °F 57.0 °F 32% 29.88 in 10.0 mi SE 11.5 mph 19.6 mph N/A   Scattered Clouds
2:51 PM 91.9 °F 90.6 °F 57.0 °F 31% 29.85 in 10.0 mi SSE 13.8 mph 19.6 mph N/A   Scattered Clouds
3:51 PM 91.9 °F 90.3 °F 55.9 °F 30% 29.83 in 10.0 mi ESE 5.8 mph 16.1 mph N/A   Scattered Clouds
4:51 PM 91.9 °F 90.3 °F 55.9 °F 30% 29.82 in 10.0 mi SE 12.7 mph - N/A   Scattered Clouds
5:51 PM 93.0 °F 91.1 °F 55.0 °F 28% 29.82 in 10.0 mi ESE 12.7 mph - N/A   Partly Cloudy
6:51 PM 91.9 °F 90.3 °F 55.9 °F 30% 29.83 in 10.0 mi ESE 12.7 mph 19.6 mph N/A   Clear
7:51 PM 89.1 °F 87.7 °F 57.0 °F 34% 29.84 in 10.0 mi SE 11.5 mph - N/A   Clear
8:51 PM 84.9 °F 84.2 °F 57.9 °F 40% 29.86 in 10.0 mi ESE 5.8 mph - N/A   Clear
9:51 PM 82.0 °F 82.0 °F 57.9 °F 44% 29.88 in 10.0 mi ESE 3.5 mph - N/A   Clear
10:51 PM 80.1 °F 80.4 °F 57.0 °F 45% 29.89 in 10.0 mi SSW 3.5 mph - N/A   Clear
11:51 PM 75.9 °F - 55.0 °F 48% 29.89 in 10.0 mi South 3.5 mph - N/A   Clear